This is the latest recevied weather packets stored in our database for station/object W7BL. If no packets are shown the sender has not sent any weather packets the latest 10 day(s).
| Time | Temp. | Humidity | Pressure | Rain* | Wind** | Luminosity | Snow |
|---|---|---|---|---|---|---|---|
| 1778103075 | 26.67° C | 33% | - | 0 mm | - | - | - |
| 1778102772 | 26.67° C | 33% | - | 0 mm | - | - | - |
| 1778102467 | 26.11° C | 33% | - | 0 mm | - | - | - |
| 1778102163 | 26.67° C | 32% | - | 0 mm | - | - | - |
| 1778101860 | 26.67° C | 33% | - | 0 mm | - | - | - |
| 1778101556 | 25.56° C | 35% | - | 0 mm | - | - | - |
| 1778101253 | 25.56° C | 36% | - | 0 mm | - | - | - |
| 1778100950 | 25.56° C | 34% | - | 0 mm | - | - | - |
| 1778100645 | 25.56° C | 36% | - | 0 mm | - | - | - |
| 1778100343 | 25.56° C | 33% | - | 0 mm | - | - | - |
| 1778100040 | 25.56° C | 34% | - | 0 mm | - | - | - |
| 1778099738 | 26.11° C | 36% | - | 0 mm | - | - | - |
| 1778099434 | 25.56° C | 33% | - | 0 mm | - | - | - |
| 1778099132 | 26.11° C | 35% | - | 0 mm | - | - | - |
| 1778098828 | 26.11° C | 33% | - | 0 mm | - | - | - |
| 1778098526 | 25.56° C | 36% | - | 0 mm | - | - | - |
| 1778098222 | 25° C | 35% | - | 0 mm | - | - | - |
| 1778097918 | 25.56° C | 33% | - | 0 mm | - | - | - |
| 1778097615 | 25° C | 36% | - | 0 mm | - | - | - |
| 1778097313 | 25.56° C | 33% | - | 0 mm | - | - | - |
| 1778097009 | 24.44° C | 35% | - | 0 mm | - | - | - |
| 1778096706 | 25° C | 37% | - | 0 mm | - | - | - |
| 1778096402 | 23.89° C | 37% | - | 0 mm | - | - | - |
| 1778096100 | 24.44° C | 35% | - | 0 mm | - | - | - |
| 1778095796 | 23.89° C | 38% | - | 0 mm | - | - | - |
* Rain latest hour (hover to see other rain measurements)
** Current wind speed in m/s (hover to see current wind gust speed)